EW7063 Weather Reports


time (UTC)temp
F
wind
direction
speed
knots
gust
knots
rain 1hr
in
rain 24hr
in
rain mn
in
humidity
%
barometer
mb
20260504215156 69 199 6.1 18.2 0.00 0.02 0.01 63 1005.4
20260504214654 69 206 4.3 14.8 0.00 0.02 0.01 63 1005.2
20260504214147 69 191 5.2 14.8 0.00 0.02 0.01 61 1005.2
20260504213643 69 225 5.2 14.8 0.00 0.02 0.01 60 1005.2
20260504213137 70 200 6.1 14.8 0.00 0.02 0.01 60 1005.0
20260504212907 71 207 6.1 13.0 0.00 0.02 0.01 57 1005.0
20260504212408 70 211 6.1 12.2 0.00 0.02 0.01 58 1004.8
20260504211636 70 216 5.2 11.3 0.00 0.02 0.01 59 1004.8
20260504211137 69 229 5.2 12.2 0.00 0.02 0.01 60 1004.8
20260504210638 69 172 5.2 15.6 0.00 0.02 0.01 59 1004.8
20260504210132 70 186 5.2 15.6 0.00 0.02 0.01 58 1005.0
20260504205634 70 234 5.2 20.0 0.00 0.02 0.01 57 1005.0
20260504205134 71 148 5.2 20.0 0.00 0.02 0.01 57 1005.2
20260504204632 71 178 6.1 16.5 0.00 0.02 0.01 58 1005.6
20260504204133 70 248 7.8 19.1 0.00 0.02 0.01 59 1005.7
20260504203903 69 265 7.8 19.1 0.00 0.02 0.01 57 1005.7
20260504203132 69 215 7.0 19.1 0.00 0.02 0.01 58 1005.6
20260504202636 69 234 6.1 15.6 0.00 0.02 0.01 57 1005.6
20260504202132 69 240 5.2 15.6 0.00 0.02 0.01 57 1005.6
20260504201633 69 263 5.2 13.9 0.00 0.02 0.01 58 1005.7
20260504201135 70 190 6.1 17.4 0.00 0.02 0.01 57 1005.7
20260504200629 70 288 5.2 17.4 0.00 0.02 0.01 58 1005.8
20260504200400 70 209 5.2 15.6 0.00 0.02 0.01 59 1006.0
20260504195900 69 223 6.1 15.6 0.00 0.02 0.01 60 1005.9
20260504195128 69 171 6.1 17.4 0.00 0.02 0.01 60 1006.0
20260504194900 69 171 7.0 17.4 0.00 0.02 0.01 61 1005.9
20260504194130 69 186 7.8 19.1 0.00 0.02 0.01 63 1006.1
20260504193629 70 248 6.1 19.1 0.00 0.02 0.01 62 1006.1
20260504193126 70 309 5.2 17.4 0.00 0.02 0.01 60 1006.3
20260504192628 69 175 6.1 18.2 0.00 0.02 0.01 63 1006.5
20260504192127 69 211 7.0 18.2 0.00 0.02 0.01 59 1006.6
20260504191625 70 202 7.0 19.1 0.00 0.02 0.01 60 1006.6
20260504191123 71 228 7.0 19.1 0.00 0.02 0.01 58 1006.6
20260504190623 71 265 7.0 18.2 0.00 0.02 0.01 60 1006.8
20260504190353 72 213 5.2 15.6 0.00 0.02 0.01 56 1006.7
20260504190237 72 244 5.2 15.6 0.00 0.02 0.01 56 1006.5
20260504185124 72 185 6.1 20.0 0.00 0.02 0.01 56 1006.4
20260504184623 72 222 7.0 20.9 0.00 0.02 0.01 60 1006.5
20260504184122 71 260 7.0 20.9 0.00 0.02 0.01 55 1006.7
20260504183616 71 160 7.0 17.4 0.00 0.02 0.01 60 1006.6
20260504183117 72 173 7.0 18.2 0.00 0.02 0.01 55 1006.6
20260504182616 72 255 7.0 18.2 0.00 0.02 0.01 59 1006.4
20260504182345 72 257 7.0 17.4 0.00 0.02 0.01 57 1006.3
20260504181614 72 190 6.1 20.0 0.00 0.02 0.01 55 1006.3
20260504181347 72 181 7.0 20.0 0.00 0.02 0.01 58 1006.2
20260504180841 72 248 6.1 22.6 0.00 0.02 0.01 58 1006.1
20260504180110 73 209 5.2 22.6 0.00 0.02 0.01 58 1006.0
20260504175611 72 202 5.2 15.6 0.00 0.02 0.01 57 1006.1
20260504175108 72 213 6.1 20.0 0.00 0.02 0.01 57 1006.1
20260504174606 72 200 5.2 20.0 0.00 0.02 0.01 55 1006.1
20260504174106 72 232 6.1 16.5 0.00 0.02 0.01 59 1006.2
20260504173603 71 245 7.0 16.5 0.00 0.02 0.01 61 1006.2
20260504173102 71 221 7.0 22.6 0.00 0.02 0.01 56 1006.2
20260504172834 71 212 7.0 22.6 0.00 0.02 0.01 60 1006.2
20260504172102 71 242 6.1 19.1 0.00 0.02 0.01 57 1006.3
20260504171602 71 256 3.5 13.0 0.00 0.02 0.01 65 1006.1
20260504171100 70 195 4.3 18.2 0.00 0.02 0.01 65 1006.3
20260504170828 70 200 6.1 19.1 0.00 0.02 0.01 62 1006.3
20260504151031 65 261 4.3 13.0 0.01 0.02 0.01 65 1007.3
20260504150524 64 207 4.3 13.0 0.01 0.02 0.01 65 1007.3
20260504141002 60 183 3.5 11.3 0.00 0.01 0.00 67 1007.6
20260504140503 60 232 3.5 13.9 0.00 0.01 0.00 66 1007.8
20260504130452 56 190 4.3 9.6 0.00 0.01 0.00 69 1008.2
20260504130224 56 182 4.3 9.6 0.00 0.01 0.00 70 1008.2
20260504120212 51 204 3.5 7.0 0.00 0.01 0.00 74 1008.4
20260504110426 48 226 3.5 7.8 0.00 0.01 0.00 75 1007.9
20260504100417 49 190 3.5 8.7 0.00 0.01 0.00 73 1008.4
20260504081903 50 241 3.5 9.6 0.00 0.01 0.00 69 1009.0
20260504081402 50 211 3.5 7.8 0.00 0.01 0.00 69 1009.0
20260504080902 50 202 3.5 7.0 0.00 0.01 0.00 69 1009.0
20260504080628 50 182 3.5 7.8 0.00 0.01 0.00 69 1009.1
20260504070345 51 221 5.2 12.2 0.00 0.01 0.00 65 1009.4
20260504050328 52 202 4.3 8.7 0.00 0.01 0.00 63 1010.8
20260504045824 52 188 4.3 9.6 0.00 0.01 0.00 64 1010.7
20260504045321 52 219 4.3 9.6 0.00 0.01 0.00 64 1010.7
20260504044822 52 203 4.3 8.7 0.00 0.01 0.00 64 1010.8
20260504044552 52 190 4.3 8.7 0.00 0.01 0.00 65 1010.8
20260504044058 52 192 3.5 9.6 0.00 0.01 0.00 65 1010.8
20260504043821 52 186 3.5 7.8 0.00 0.01 0.00 65 1010.8
20260504042817 52 199 4.3 9.6 0.00 0.01 0.00 65 1010.9
20260504042315 51 221 3.5 8.7 0.00 0.01 0.00 67 1011.0
20260504042046 51 198 3.5 7.0 0.00 0.01 0.00 68 1011.0
20260504041314 51 175 2.6 7.8 0.00 0.01 0.00 68 1011.0
20260504040815 51 166 3.5 7.8 0.00 0.01 0.00 69 1011.1
20260504040317 51 188 3.5 7.0 0.00 0.01 0.00 70 1011.1
20260504035812 51 198 3.5 7.0 0.00 0.01 0.01 71 1011.2
20260504035309 51 210 2.6 7.0 0.00 0.01 0.01 71 1011.2
20260504034808 51 190 2.6 6.1 0.00 0.01 0.01 71 1011.2
20260504034309 51 179 3.5 6.1 0.00 0.01 0.01 71 1011.3
20260504034042 51 178 4.3 7.8 0.00 0.01 0.01 71 1011.3
20260504033309 51 194 4.3 7.8 0.00 0.01 0.01 72 1011.4
20260504032804 51 172 4.3 7.0 0.00 0.01 0.01 71 1011.4
20260504032536 51 167 4.3 7.8 0.00 0.01 0.01 72 1011.4
20260504031804 50 182 4.3 7.8 0.00 0.01 0.01 72 1011.6
20260504031303 50 178 4.3 7.8 0.00 0.01 0.01 73 1011.7
20260504030803 50 163 3.5 7.8 0.00 0.01 0.01 73 1011.7
20260504030304 50 150 3.5 7.8 0.00 0.01 0.01 73 1011.8
20260504025759 50 175 3.5 6.1 0.00 0.01 0.01 73 1011.8
20260504025530 50 182 3.5 6.1 0.00 0.01 0.01 73 1011.9
20260504024757 50 165 3.5 6.1 0.00 0.01 0.01 73 1011.9
20260504024256 50 174 3.5 6.1 0.00 0.01 0.01 73 1012.0
20260504023757 50 158 3.5 7.0 0.00 0.01 0.01 74 1012.0
20260504023300 50 201 3.5 7.0 0.00 0.01 0.01 73 1012.0
20260504022752 50 176 4.3 8.7 0.00 0.01 0.01 73 1011.9
20260504022251 50 159 4.3 8.7 0.00 0.01 0.01 73 1012.0
20260504021751 50 142 4.3 7.8 0.00 0.01 0.01 73 1011.9
20260504021252 50 161 4.3 7.0 0.00 0.01 0.01 74 1011.9
20260504020751 49 159 4.3 7.8 0.00 0.01 0.01 73 1012.0
20260504020252 49 175 3.5 7.8 0.00 0.01 0.01 75 1012.1
20260504015748 49 150 3.5 7.0 0.00 0.01 0.01 76 1012.1
20260504015252 49 160 2.6 4.3 0.00 0.01 0.01 78 1012.0
20260504015247 49 172 3.5 6.1 0.00 0.01 0.01 77 1012.0
20260504014247 49 150 2.6 4.3 0.00 0.01 0.01 77 1012.0
20260504013745 49 150 2.6 4.3 0.00 0.01 0.01 78 1012.0
20260504013245 49 154 2.6 4.3 0.00 0.01 0.01 78 1012.0
20260504012740 49 162 1.7 3.5 0.00 0.01 0.01 79 1012.1
20260504012240 49 148 1.7 4.3 0.00 0.01 0.01 79 1012.1
20260504011740 49 151 2.6 5.2 0.00 0.01 0.01 80 1012.1
20260504011240 49 144 3.5 7.0 0.00 0.01 0.01 80 1012.0
20260504010739 49 132 2.6 7.0 0.00 0.01 0.01 82 1012.0
20260504010241 49 143 1.7 3.5 0.00 0.01 0.01 83 1012.1
20260504005737 49 142 2.6 5.2 0.00 0.01 0.01 83 1012.1
20260504005235 49 144 1.7 5.2 0.00 0.01 0.01 83 1012.1
20260504004734 48 129 1.7 5.2 0.00 0.01 0.01 84 1012.0
20260504004232 48 128 1.7 5.2 0.00 0.01 0.01 84 1012.0
20260504003732 48 132 0.9 3.5 0.00 0.01 0.01 84 1012.0
20260504003505 48 133 0.9 3.5 0.00 0.01 0.01 84 1012.1
20260504003226 49 133 1.7 3.5 0.00 0.01 0.01 84 1012.1
20260504002224 49 123 1.7 3.5 0.00 0.01 0.01 84 1012.0
20260504001726 49 119 0.9 2.6 0.00 0.01 0.01 85 1012.2
20260504001226 49 119 0.9 1.7 0.00 0.01 0.01 85 1012.2
20260504000723 49 119 0.0 1.7 0.00 0.01 0.01 85 1012.3
20260504000223 49 119 0.0 1.7 0.00 0.01 0.01 85 1012.2
20260504000219 49 119 0.0 0.0 0.00 0.01 0.01 85 1012.2
20260503235215 49 119 0.0 1.7 0.00 0.01 0.01 85 1012.1
20260503234945 49 119 0.9 1.7 0.00 0.01 0.01 85 1012.1
20260503234211 49 119 0.9 3.5 0.00 0.01 0.01 85 1012.1
20260503233711 49 119 1.7 3.5 0.00 0.01 0.01 85 1012.1
20260503233212 49 138 1.7 3.5 0.00 0.01 0.01 85 1012.1
20260503232706 49 140 0.9 3.5 0.00 0.01 0.01 85 1012.2
20260503232440 48 139 1.7 3.5 0.00 0.01 0.01 85 1012.3
20260503231707 48 140 2.6 6.1 0.00 0.01 0.01 85 1012.3
20260503231207 48 138 1.7 6.1 0.01 0.01 0.01 85 1012.4
20260503230706 48 146 0.9 4.3 0.01 0.01 0.01 86 1012.4
20260503230208 48 151 1.7 3.5 0.01 0.01 0.01 86 1012.4
20260503225702 48 151 2.6 3.5 0.01 0.01 0.01 86 1012.6
20260503225204 48 165 1.7 3.5 0.01 0.01 0.01 86 1012.9
20260503224702 48 198 1.7 3.5 0.01 0.01 0.01 86 1013.1
20260503224203 48 207 0.9 3.5 0.01 0.01 0.01 86 1013.1
20260503223936 48 253 0.9 2.6 0.01 0.01 0.01 85 1013.1
20260503223203 48 264 0.9 2.6 0.01 0.01 0.01 84 1013.3
20260503222659 49 265 0.9 3.5 0.01 0.01 0.01 82 1013.4
20260503222431 49 263 1.7 5.2 0.01 0.01 0.01 81 1014.1
20260503221930 49 259 1.7 5.2 0.01 0.01 0.01 79 1014.1
20260503221158 50 247 3.5 9.6 0.00 0.00 0.00 77 1014.3
20260503220700 50 299 4.3 11.3 0.00 0.00 0.00 74 1014.4
20260503220201 51 239 6.1 17.4 0.00 0.00 0.00 71 1014.4
20260503215655 52 297 7.0 17.4 0.00 0.00 0.00 67 1014.4